Milwaukee, WI

4:24 AM CDT on June 27, 2017 (GMT -0500)
Gen Mitchell International

Weather History for KMKE - October, 2013

Change the Weather History Date:

Wednesday, October 23, 2013

  Actual Average Record
Temperature  
Mean Temperature 38 °F 49 °F  
Max Temperature 44 °F 57 °F 84 °F (1963)
Min Temperature 31 °F 41 °F 21 °F (1981)
Degree Days  
Heating Degree Days 27 16  
Month to date heating degree days 256 291  
Since 1 July heating degree days 386 443  
Cooling Degree Days 0 0  
Month to date cooling degree days 10 3  
Year to date cooling degree days 688 637  
Moisture  
Dew Point 24 °F    
Average Humidity 56    
Maximum Humidity 78    
Minimum Humidity 33    
Precipitation  
Precipitation 0.00 in 0.09 in 1.33 in (2009)
Month to date precipitation 2.62 1.96  
Year to date precipitation 34.29 29.32  
Snow  
Snow 0.00 in 0.00 in 1.10 in (1929)
Month to date snowfall 0.0 0.2  
Since 1 July snowfall 0.0 0.2  
Since 1 September snowfall 0.0 0.2  
Snow Depth 0.00 in    
Sea Level Pressure  
Sea Level Pressure 29.98 in    
Wind  
Wind Speed 9 mph (NW)    
Max Wind Speed 17 mph    
Max Gust Speed 23 mph    
Visibility 10 miles    
Events      
T = Trace of Precipitation, MM = Missing Value Source: NWS Daily Summary

Daily Weather History Graph

Daily Weather History Graph

Search for Another Location

Airport or City:

Trip Planner

Search our weather history database for the weather conditions in past years. The results will help you decide how hot, cold, wet, or windy it might be!

Date:

Astronomy

Oct. 23, 2013 Rise Set
Actual Time 7:15 AM CDT 5:56 PM CDT
Civil Twilight 6:46 AM CDT 6:24 PM CDT
Nautical Twilight 6:12 AM CDT 6:58 PM CDT
Astronomical Twilight 5:40 AM CDT 7:30 PM CDT
Moon 9:23 PM CDT (10/23) 11:35 AM CDT (10/23)
Length of Visible Light 11h 38m
Length of Day
10h 40m
Waning Gibbous, 79% of the Moon is Illuminated
Oct 23
Waning Gibbous
Oct 26
Last Quarter
Nov 3
New
Nov 9
First Quarter
Nov 17
Full

Hourly Weather History & Observations

Time (CDT) Temp. Windchill Dew Point Humidity Pressure Visibility Wind Dir Wind Speed Gust Speed Precip Events Conditions
12:52 AM 37.0 °F 31.0 °F 26.1 °F 65% 29.94 in 10.0 mi North 8.1 mph - N/A   Partly Cloudy
1:52 AM 36.0 °F 29.6 °F 27.0 °F 70% 29.94 in 10.0 mi North 8.1 mph - N/A   Clear
2:52 AM 35.1 °F 28.6 °F 27.0 °F 72% 29.94 in 10.0 mi NW 8.1 mph - N/A   Clear
3:52 AM 34.0 °F 28.0 °F 27.0 °F 75% 29.93 in 10.0 mi NNW 6.9 mph - N/A   Clear
4:52 AM 34.0 °F 28.0 °F 27.0 °F 75% 29.94 in 10.0 mi NW 6.9 mph - N/A   Clear
5:52 AM 32.0 °F 24.8 °F 27.0 °F 82% 29.96 in 10.0 mi WNW 8.1 mph - N/A   Clear
6:52 AM 32.0 °F 25.6 °F 26.1 °F 79% 29.96 in 10.0 mi NW 6.9 mph - N/A   Partly Cloudy
7:52 AM 32.0 °F 24.8 °F 25.0 °F 75% 29.98 in 10.0 mi WNW 8.1 mph - N/A   Partly Cloudy
8:52 AM 36.0 °F 29.0 °F 25.0 °F 64% 29.99 in 10.0 mi NW 9.2 mph - N/A   Partly Cloudy
9:52 AM 37.9 °F 30.9 °F 25.0 °F 60% 29.99 in 10.0 mi NW 10.4 mph - N/A   Partly Cloudy
10:52 AM 39.9 °F 32.9 °F 21.0 °F 47% 30.00 in 10.0 mi WNW 11.5 mph 18.4 mph N/A   Scattered Clouds
11:52 AM 41.0 °F 34.7 °F 21.0 °F 45% 29.99 in 10.0 mi West 10.4 mph - N/A   Mostly Cloudy
12:52 PM 41.0 °F 35.2 °F 19.9 °F 43% 29.99 in 10.0 mi WNW 9.2 mph - N/A   Mostly Cloudy
1:52 PM 41.0 °F 37.1 °F 19.9 °F 43% 29.97 in 10.0 mi North 5.8 mph - N/A   Mostly Cloudy
2:52 PM 43.0 °F 36.0 °F 19.0 °F 38% 29.97 in 10.0 mi NW 13.8 mph - N/A   Mostly Cloudy
3:52 PM 44.1 °F 37.1 °F 18.0 °F 35% 29.97 in 10.0 mi WNW 15.0 mph - N/A   Mostly Cloudy
4:52 PM 43.0 °F 37.7 °F 19.0 °F 38% 29.98 in 10.0 mi West 9.2 mph 19.6 mph N/A   Mostly Cloudy
5:52 PM 42.1 °F 36.1 °F 21.0 °F 43% 29.98 in 10.0 mi West 10.4 mph - N/A   Mostly Cloudy
6:52 PM 41.0 °F 34.7 °F 23.0 °F 49% 30.00 in 10.0 mi WNW 10.4 mph - N/A   Overcast
7:52 PM 41.0 °F 36.4 °F 24.1 °F 51% 30.00 in 10.0 mi WNW 6.9 mph - N/A   Overcast
8:52 PM 39.0 °F 32.8 °F 27.0 °F 62% 30.01 in 10.0 mi West 9.2 mph - N/A   Overcast
9:52 PM 37.9 °F 32.1 °F 27.0 °F 65% 30.02 in 10.0 mi WNW 8.1 mph - N/A   Overcast
10:52 PM 37.9 °F 30.9 °F 26.1 °F 62% 30.02 in 10.0 mi WNW 10.4 mph - N/A   Overcast
11:52 PM 37.9 °F 31.5 °F 26.1 °F 62% 30.01 in 10.0 mi WNW 9.2 mph - N/A   Overcast